Time,TemperatureF,DewpointF,PressureIn,WindDirection,WindDirectionDegrees,WindSpeedMPH,WindSpeedGustMPH,Humidity,HourlyPrecipIn,Conditions,Clouds,dailyrainin,SoftwareType,DateUTC
2013-01-31 00:01:00,-9.0,-15.0,-100.00,WNW,295,18.0,-999.0,74,-99.99,,,-99.99,,2013-01-31 06:01:00,
2013-01-31 08:02:00,-15.0,-21.0,-100.00,WNW,290,19.0,-999.0,73,-99.99,,,-99.99,,2013-01-31 14:02:00,
2013-01-31 08:11:00,-15.0,-21.0,-100.00,NW,314,19.0,-999.0,74,-99.99,,,-99.99,,2013-01-31 14:11:00,
2013-01-31 08:22:00,-15.0,-20.0,-100.00,NW,317,21.0,-999.0,75,-99.99,,,-99.99,,2013-01-31 14:22:00,
2013-01-31 08:32:00,-15.0,-20.0,-100.00,NW,308,22.0,-999.0,76,-99.99,,,-99.99,,2013-01-31 14:32:00,
2013-01-31 08:42:00,-14.0,-20.0,-100.00,NW,312,21.0,-999.0,76,-99.99,,,-99.99,,2013-01-31 14:42:00,
2013-01-31 08:52:00,-14.0,-19.0,-100.00,WNW,300,20.0,-999.0,76,-99.99,,,-99.99,,2013-01-31 14:52:00,
2013-01-31 09:03:00,-14.0,-19.0,-100.00,WNW,294,26.0,-999.0,76,-99.99,,,-99.99,,2013-01-31 15:03:00,
2013-01-31 09:12:00,-14.0,-19.0,-100.00,NW,314,22.0,-999.0,76,-99.99,,,-99.99,,2013-01-31 15:12:00,
2013-01-31 09:22:00,-14.0,-19.0,-100.00,NW,318,23.0,-999.0,75,-99.99,,,-99.99,,2013-01-31 15:22:00,
2013-01-31 09:32:00,-14.0,-19.0,-100.00,NW,304,24.0,-999.0,76,-99.99,,,-99.99,,2013-01-31 15:32:00,
2013-01-31 09:42:00,-14.0,-19.0,-100.00,WNW,298,23.0,-999.0,76,-99.99,,,-99.99,,2013-01-31 15:42:00,
2013-01-31 09:51:00,-14.0,-19.0,-100.00,NW,315,30.0,-999.0,76,-99.99,,,-99.99,,2013-01-31 15:51:00,
2013-01-31 10:03:00,-14.0,-19.0,-100.00,NW,315,28.0,-999.0,75,-99.99,,,-99.99,,2013-01-31 16:03:00,
2013-01-31 10:12:00,-14.0,-19.0,-100.00,NW,320,26.0,-999.0,75,-99.99,,,-99.99,,2013-01-31 16:12:00,
2013-01-31 10:22:00,-14.0,-19.0,-100.00,WNW,291,26.0,-999.0,75,-99.99,,,-99.99,,2013-01-31 16:22:00,
2013-01-31 10:33:00,-14.0,-19.0,-100.00,NW,321,26.0,-999.0,76,-99.99,,,-99.99,,2013-01-31 16:33:00,
2013-01-31 10:42:00,-14.0,-19.0,-100.00,WNW,299,23.0,-999.0,75,-99.99,,,-99.99,,2013-01-31 16:42:00,
2013-01-31 10:52:00,-14.0,-20.0,-100.00,NW,318,28.0,-999.0,74,-99.99,,,-99.99,,2013-01-31 16:52:00,
2013-01-31 11:02:00,-14.0,-20.0,-100.00,WNW,296,28.0,-999.0,74,-99.99,,,-99.99,,2013-01-31 17:02:00,
2013-01-31 11:12:00,-14.0,-20.0,-100.00,NW,304,31.0,-999.0,73,-99.99,,,-99.99,,2013-01-31 17:12:00,
2013-01-31 11:23:00,-13.0,-19.0,-100.00,WNW,299,28.0,-999.0,73,-99.99,,,-99.99,,2013-01-31 17:23:00,
2013-01-31 11:32:00,-13.0,-19.0,-100.00,NW,325,23.0,-999.0,73,-99.99,,,-99.99,,2013-01-31 17:32:00,
2013-01-31 11:43:00,-13.0,-19.0,-100.00,NW,318,31.0,-999.0,72,-99.99,,,-99.99,,2013-01-31 17:43:00,
2013-01-31 11:53:00,-13.0,-19.0,-100.00,NW,318,28.0,-999.0,73,-99.99,,,-99.99,,2013-01-31 17:53:00,
2013-01-31 12:03:00,-13.0,-19.0,-100.00,NW,306,21.0,-999.0,73,-99.99,,,-99.99,,2013-01-31 18:03:00,
2013-01-31 12:12:00,-13.0,-19.0,-100.00,NW,304,22.0,-999.0,73,-99.99,,,-99.99,,2013-01-31 18:12:00,
2013-01-31 12:22:00,-13.0,-19.0,-100.00,NW,310,27.0,-999.0,72,-99.99,,,-99.99,,2013-01-31 18:22:00,
2013-01-31 12:32:00,-12.0,-19.0,-100.00,WNW,301,21.0,-999.0,72,-99.99,,,-99.99,,2013-01-31 18:32:00,
2013-01-31 12:43:00,-12.0,-19.0,-100.00,NW,316,24.0,-999.0,72,-99.99,,,-99.99,,2013-01-31 18:43:00,
2013-01-31 12:52:00,-12.0,-19.0,-100.00,WNW,300,23.0,-999.0,70,-99.99,,,-99.99,,2013-01-31 18:52:00,
2013-01-31 13:02:00,-12.0,-19.0,-100.00,NNW,328,28.0,-999.0,71,-99.99,,,-99.99,,2013-01-31 19:02:00,
2013-01-31 13:12:00,-12.0,-19.0,-100.00,NW,321,25.0,-999.0,70,-99.99,,,-99.99,,2013-01-31 19:12:00,
2013-01-31 13:22:00,-12.0,-19.0,-100.00,NW,308,29.0,-999.0,70,-99.99,,,-99.99,,2013-01-31 19:22:00,
2013-01-31 13:32:00,-11.0,-19.0,-100.00,NW,311,28.0,-999.0,69,-99.99,,,-99.99,,2013-01-31 19:32:00,
2013-01-31 13:42:00,-11.0,-19.0,-100.00,NW,311,28.0,-999.0,69,-99.99,,,-99.99,,2013-01-31 19:42:00,
2013-01-31 13:52:00,-11.0,-18.0,-100.00,WNW,287,25.0,-999.0,69,-99.99,,,-99.99,,2013-01-31 19:52:00,
2013-01-31 14:02:00,-11.0,-18.0,-100.00,WNW,294,28.0,-999.0,69,-99.99,,,-99.99,,2013-01-31 20:02:00,
2013-01-31 14:11:00,-10.0,-18.0,-100.00,WNW,293,23.0,-999.0,68,-99.99,,,-99.99,,2013-01-31 20:11:00,
2013-01-31 14:22:00,-10.0,-18.0,-100.00,NW,320,24.0,-999.0,67,-99.99,,,-99.99,,2013-01-31 20:22:00,
2013-01-31 14:31:00,-10.0,-18.0,-100.00,WNW,290,26.0,-999.0,67,-99.99,,,-99.99,,2013-01-31 20:31:00,
2013-01-31 14:42:00,-10.0,-18.0,-100.00,WNW,290,26.0,-999.0,67,-99.99,,,-99.99,,2013-01-31 20:42:00,
2013-01-31 14:52:00,-10.0,-18.0,-100.00,WNW,296,23.0,-999.0,65,-99.99,,,-99.99,,2013-01-31 20:52:00,
2013-01-31 15:02:00,-10.0,-18.0,-100.00,WNW,285,22.0,-999.0,65,-99.99,,,-99.99,,2013-01-31 21:02:00,
2013-01-31 15:12:00,-10.0,-18.0,-100.00,WNW,289,24.0,-999.0,65,-99.99,,,-99.99,,2013-01-31 21:12:00,
2013-01-31 15:22:00,-10.0,-18.0,-100.00,NW,305,24.0,-999.0,65,-99.99,,,-99.99,,2013-01-31 21:22:00,
2013-01-31 15:32:00,-10.0,-19.0,-100.00,NW,316,24.0,-999.0,64,-99.99,,,-99.99,,2013-01-31 21:32:00,
2013-01-31 15:42:00,-10.0,-19.0,-100.00,NW,304,21.0,-999.0,64,-99.99,,,-99.99,,2013-01-31 21:42:00,
2013-01-31 15:52:00,-10.0,-19.0,-100.00,NW,310,20.0,-999.0,63,-99.99,,,-99.99,,2013-01-31 21:52:00,
2013-01-31 16:03:00,-9.0,-18.0,-100.00,NW,306,17.0,-999.0,64,-99.99,,,-99.99,,2013-01-31 22:03:00,
2013-01-31 16:11:00,-10.0,-19.0,-100.00,NW,304,21.0,-999.0,62,-99.99,,,-99.99,,2013-01-31 22:11:00,
2013-01-31 16:22:00,-10.0,-19.0,-100.00,NW,320,23.0,-999.0,62,-99.99,,,-99.99,,2013-01-31 22:22:00,
2013-01-31 16:33:00,-10.0,-19.0,-100.00,West,274,18.0,-999.0,63,-99.99,,,-99.99,,2013-01-31 22:33:00,
2013-01-31 16:42:00,-10.0,-19.0,-100.00,West,274,18.0,-999.0,63,-99.99,,,-99.99,,2013-01-31 22:42:00,
2013-01-31 16:51:00,-10.0,-19.0,-100.00,WNW,296,15.0,-999.0,65,-99.99,,,-99.99,,2013-01-31 22:51:00,
2013-01-31 17:02:00,-10.0,-19.0,-100.00,WNW,295,17.0,-999.0,64,-99.99,,,-99.99,,2013-01-31 23:02:00,
2013-01-31 17:12:00,-11.0,-19.0,-100.00,WNW,293,20.0,-999.0,65,-99.99,,,-99.99,,2013-01-31 23:12:00,
2013-01-31 17:22:00,-11.0,-19.0,-100.00,WNW,290,16.0,-999.0,65,-99.99,,,-99.99,,2013-01-31 23:22:00,
2013-01-31 17:32:00,-11.0,-19.0,-100.00,WNW,288,14.0,-999.0,65,-99.99,,,-99.99,,2013-01-31 23:32:00,
2013-01-31 17:42:00,-11.0,-20.0,-100.00,WNW,302,14.0,-999.0,65,-99.99,,,-99.99,,2013-01-31 23:42:00,
2013-01-31 17:52:00,-11.0,-20.0,-100.00,WNW,302,14.0,-999.0,65,-99.99,,,-99.99,,2013-01-31 23:52:00,
2013-01-31 18:01:00,-12.0,-20.0,-100.00,WNW,289,10.0,-999.0,67,-99.99,,,-99.99,,2013-02-01 00:01:00,
2013-01-31 18:11:00,-13.0,-20.0,-100.00,WNW,296,10.0,-999.0,68,-99.99,,,-99.99,,2013-02-01 00:11:00,
2013-01-31 18:22:00,-13.0,-20.0,-100.00,WNW,292,10.0,-999.0,68,-99.99,,,-99.99,,2013-02-01 00:22:00,
2013-01-31 18:32:00,-14.0,-21.0,-100.00,WNW,293,15.0,-999.0,69,-99.99,,,-99.99,,2013-02-01 00:32:00,
2013-01-31 18:42:00,-14.0,-21.0,-100.00,WNW,293,15.0,-999.0,69,-99.99,,,-99.99,,2013-02-01 00:42:00,
2013-01-31 18:52:00,-15.0,-22.0,-100.00,WNW,283,10.0,-999.0,69,-99.99,,,-99.99,,2013-02-01 00:52:00,
2013-01-31 19:01:00,-15.0,-22.0,-100.00,WNW,283,10.0,-999.0,69,-99.99,,,-99.99,,2013-02-01 01:01:00,
2013-01-31 19:11:00,-15.0,-22.0,-100.00,WNW,286,10.0,-999.0,69,-99.99,,,-99.99,,2013-02-01 01:11:00,
2013-01-31 19:21:00,-15.0,-22.0,-100.00,WNW,285,11.0,-999.0,69,-99.99,,,-99.99,,2013-02-01 01:21:00,
2013-01-31 19:32:00,-15.0,-22.0,-100.00,West,278,10.0,-999.0,69,-99.99,,,-99.99,,2013-02-01 01:32:00,
2013-01-31 19:42:00,-15.0,-22.0,-100.00,WNW,283,9.0,-999.0,69,-99.99,,,-99.99,,2013-02-01 01:42:00,
2013-01-31 19:52:00,-16.0,-23.0,-100.00,WNW,283,8.0,-999.0,70,-99.99,,,-99.99,,2013-02-01 01:52:00,
2013-01-31 20:02:00,-16.0,-23.0,-100.00,WNW,284,9.0,-999.0,70,-99.99,,,-99.99,,2013-02-01 02:02:00,
2013-01-31 20:11:00,-16.0,-23.0,-100.00,West,270,8.0,-999.0,70,-99.99,,,-99.99,,2013-02-01 02:11:00,
2013-01-31 20:21:00,-16.0,-23.0,-100.00,West,276,9.0,-999.0,70,-99.99,,,-99.99,,2013-02-01 02:21:00,
2013-01-31 20:32:00,-17.0,-24.0,-100.00,West,266,9.0,-999.0,71,-99.99,,,-99.99,,2013-02-01 02:32:00,
2013-01-31 20:42:00,-17.0,-24.0,-100.00,West,271,9.0,-999.0,71,-99.99,,,-99.99,,2013-02-01 02:42:00,
2013-01-31 20:52:00,-17.0,-24.0,-100.00,West,278,11.0,-999.0,72,-99.99,,,-99.99,,2013-02-01 02:52:00,
2013-01-31 21:02:00,-17.0,-24.0,-100.00,West,278,11.0,-999.0,72,-99.99,,,-99.99,,2013-02-01 03:02:00,
2013-01-31 21:12:00,-17.0,-24.0,-100.00,West,268,11.0,-999.0,71,-99.99,,,-99.99,,2013-02-01 03:12:00,
2013-01-31 21:21:00,-18.0,-24.0,-100.00,West,277,9.0,-999.0,71,-99.99,,,-99.99,,2013-02-01 03:21:00,
2013-01-31 21:32:00,-17.0,-24.0,-100.00,WNW,285,15.0,-999.0,70,-99.99,,,-99.99,,2013-02-01 03:32:00,
2013-01-31 21:42:00,-17.0,-24.0,-100.00,West,275,14.0,-999.0,69,-99.99,,,-99.99,,2013-02-01 03:42:00,
2013-01-31 21:51:00,-17.0,-24.0,-100.00,West,273,14.0,-999.0,69,-99.99,,,-99.99,,2013-02-01 03:51:00,
2013-01-31 22:02:00,-17.0,-24.0,-100.00,WNW,283,12.0,-999.0,69,-99.99,,,-99.99,,2013-02-01 04:02:00,
2013-01-31 22:11:00,-17.0,-24.0,-100.00,West,279,10.0,-999.0,69,-99.99,,,-99.99,,2013-02-01 04:11:00,
2013-01-31 22:21:00,-16.0,-24.0,-100.00,WNW,295,10.0,-999.0,69,-99.99,,,-99.99,,2013-02-01 04:21:00,
2013-01-31 22:32:00,-17.0,-24.0,-100.00,West,279,12.0,-999.0,69,-99.99,,,-99.99,,2013-02-01 04:32:00,
2013-01-31 22:41:00,-17.0,-24.0,-100.00,West,279,12.0,-999.0,69,-99.99,,,-99.99,,2013-02-01 04:41:00,
2013-01-31 22:51:00,-17.0,-24.0,-100.00,WNW,291,13.0,-999.0,69,-99.99,,,-99.99,,2013-02-01 04:51:00,
2013-01-31 23:03:00,-17.0,-24.0,-100.00,West,274,10.0,-999.0,69,-99.99,,,-99.99,,2013-02-01 05:03:00,
2013-01-31 23:12:00,-17.0,-24.0,-100.00,WNW,282,12.0,-999.0,69,-99.99,,,-99.99,,2013-02-01 05:12:00,
2013-01-31 23:22:00,-17.0,-24.0,-100.00,West,275,9.0,-999.0,69,-99.99,,,-99.99,,2013-02-01 05:22:00,
2013-01-31 23:32:00,-18.0,-25.0,-100.00,WNW,284,9.0,-999.0,69,-99.99,,,-99.99,,2013-02-01 05:32:00,
2013-01-31 23:42:00,-18.0,-25.0,-100.00,WNW,284,9.0,-999.0,69,-99.99,,,-99.99,,2013-02-01 05:42:00,
2013-01-31 23:52:00,-18.0,-25.0,-100.00,West,273,12.0,-999.0,69,-99.99,,,-99.99,,2013-02-01 05:52:00,